| time (UTC) | temp F | wind direction | speed knots | gust knots | rain 1hr in | rain 24hr in | rain mn in | humidity % | barometer mb |
| 20260506232056 | 72 | 170 | 2.6 | 7.0 | 0.00 | 0.00 | 0.00 | 54 | 1015.8 |
| 20260506231556 | 72 | 104 | 1.7 | 5.2 | 0.00 | 0.00 | 0.00 | 54 | 1015.8 |
| 20260506231056 | 72 | 129 | 1.7 | 7.0 | 0.00 | 0.00 | 0.00 | 54 | 1015.8 |
| 20260506230554 | 73 | 99 | 0.9 | 6.1 | 0.00 | 0.00 | 0.00 | 53 | 1016.0 |
| 20260506230056 | 73 | 120 | 0.9 | 6.1 | 0.00 | 0.00 | 0.00 | 53 | 1016.0 |
| 20260506225559 | 73 | 260 | 1.7 | 5.2 | 0.00 | 0.00 | 0.00 | 52 | 1016.0 |
| 20260506225055 | 73 | 131 | 0.9 | 5.2 | 0.00 | 0.00 | 0.00 | 53 | 1016.0 |
| 20260506224554 | 73 | 121 | 1.7 | 5.2 | 0.00 | 0.00 | 0.00 | 53 | 1016.0 |
| 20260506224053 | 72 | 207 | 0.9 | 6.1 | 0.00 | 0.00 | 0.00 | 55 | 1016.1 |
| 20260506223553 | 72 | 131 | 2.6 | 6.1 | 0.00 | 0.00 | 0.00 | 54 | 1016.2 |
| 20260506223105 | 72 | 128 | 1.7 | 6.1 | 0.00 | 0.00 | 0.00 | 54 | 1016.3 |
| 20260506222552 | 72 | 126 | 1.7 | 7.0 | 0.00 | 0.00 | 0.00 | 53 | 1016.3 |
| 20260506222054 | 72 | 142 | 1.7 | 7.0 | 0.00 | 0.00 | 0.00 | 54 | 1016.4 |
| 20260506221552 | 72 | 107 | 2.6 | 6.1 | 0.00 | 0.00 | 0.00 | 54 | 1016.4 |
| 20260506221053 | 72 | 103 | 1.7 | 7.0 | 0.00 | 0.00 | 0.00 | 53 | 1016.5 |
| 20260506220550 | 72 | 114 | 2.6 | 7.0 | 0.00 | 0.00 | 0.00 | 53 | 1016.6 |
| 20260506220049 | 72 | 187 | 1.7 | 7.0 | 0.00 | 0.00 | 0.00 | 53 | 1016.6 |
| 20260506215549 | 73 | 205 | 2.6 | 7.0 | 0.00 | 0.00 | 0.00 | 52 | 1016.6 |
| 20260506215047 | 73 | 109 | 0.9 | 4.3 | 0.00 | 0.00 | 0.00 | 54 | 1016.7 |
| 20260506214546 | 72 | 177 | 0.9 | 7.8 | 0.00 | 0.00 | 0.00 | 54 | 1016.8 |
| 20260506214047 | 71 | 139 | 2.6 | 7.8 | 0.00 | 0.00 | 0.00 | 54 | 1016.8 |
| 20260506213550 | 72 | 101 | 2.6 | 5.2 | 0.00 | 0.00 | 0.00 | 54 | 1016.9 |
| 20260506213044 | 72 | 68 | 2.6 | 5.2 | 0.00 | 0.00 | 0.00 | 53 | 1016.9 |
| 20260506212544 | 71 | 146 | 1.7 | 7.8 | 0.00 | 0.00 | 0.00 | 55 | 1017.0 |
| 20260506212046 | 71 | 118 | 1.7 | 7.8 | 0.00 | 0.00 | 0.00 | 55 | 1017.0 |
| 20260506211545 | 71 | 142 | 2.6 | 7.0 | 0.00 | 0.00 | 0.00 | 54 | 1017.1 |
| 20260506211043 | 71 | 128 | 3.5 | 6.1 | 0.00 | 0.00 | 0.00 | 54 | 1017.1 |
| 20260506210542 | 71 | 115 | 0.9 | 6.1 | 0.00 | 0.00 | 0.00 | 54 | 1017.2 |
| 20260506210042 | 71 | 157 | 0.9 | 6.1 | 0.00 | 0.00 | 0.00 | 53 | 1017.2 |
| 20260506205541 | 72 | 142 | 0.9 | 6.1 | 0.00 | 0.00 | 0.00 | 54 | 1017.2 |
| 20260506205042 | 72 | 110 | 1.7 | 6.1 | 0.00 | 0.00 | 0.00 | 52 | 1017.2 |
| 20260506204540 | 72 | 172 | 0.9 | 6.1 | 0.00 | 0.00 | 0.00 | 53 | 1017.2 |
| 20260506204038 | 71 | 215 | 0.9 | 7.0 | 0.00 | 0.00 | 0.00 | 55 | 1017.3 |
| 20260506203538 | 71 | 140 | 0.9 | 4.3 | 0.00 | 0.00 | 0.00 | 56 | 1017.3 |
| 20260506203043 | 71 | 115 | 0.9 | 6.1 | 0.00 | 0.00 | 0.00 | 54 | 1017.4 |
| 20260506202539 | 70 | 105 | 2.6 | 7.0 | 0.00 | 0.00 | 0.00 | 56 | 1017.5 |
| 20260506202036 | 69 | 92 | 2.6 | 7.0 | 0.00 | 0.00 | 0.00 | 56 | 1017.5 |
| 20260506201536 | 69 | 117 | 3.5 | 7.8 | 0.00 | 0.00 | 0.00 | 56 | 1017.6 |
| 20260506201038 | 71 | 109 | 0.9 | 4.3 | 0.00 | 0.00 | 0.00 | 56 | 1017.6 |
| 20260506200534 | 69 | 104 | 2.6 | 6.1 | 0.00 | 0.00 | 0.00 | 56 | 1017.7 |
| 20260506200047 | 69 | 76 | 0.9 | 6.1 | 0.00 | 0.00 | 0.00 | 56 | 1017.7 |
| 20260506195535 | 69 | 179 | 1.7 | 5.2 | 0.00 | 0.00 | 0.00 | 57 | 1017.7 |
| 20260506195034 | 68 | 243 | 0.9 | 4.3 | 0.00 | 0.00 | 0.00 | 57 | 1017.8 |
| 20260506194534 | 68 | 241 | 1.7 | 5.2 | 0.00 | 0.00 | 0.00 | 56 | 1017.8 |
| 20260506194033 | 69 | 114 | 1.7 | 5.2 | 0.00 | 0.00 | 0.00 | 57 | 1017.8 |
| 20260506193535 | 68 | 116 | 0.9 | 4.3 | 0.00 | 0.00 | 0.00 | 58 | 1017.9 |
| 20260506193033 | 68 | 108 | 0.0 | 5.2 | 0.00 | 0.00 | 0.00 | 57 | 1018.0 |
| 20260506192532 | 68 | 207 | 2.6 | 6.1 | 0.00 | 0.00 | 0.00 | 58 | 1018.0 |
| 20260506192032 | 68 | 121 | 2.6 | 7.0 | 0.00 | 0.00 | 0.00 | 57 | 1018.1 |
| 20260506191534 | 68 | 197 | 1.7 | 4.3 | 0.00 | 0.00 | 0.00 | 58 | 1018.1 |
| 20260506191031 | 68 | 121 | 1.7 | 4.3 | 0.00 | 0.00 | 0.00 | 58 | 1018.2 |
| 20260506190531 | 67 | 93 | 1.7 | 5.2 | 0.00 | 0.00 | 0.00 | 59 | 1018.3 |
| 20260506190034 | 67 | 122 | 1.7 | 5.2 | 0.00 | 0.00 | 0.00 | 59 | 1018.3 |
| 20260506185532 | 66 | 108 | 1.7 | 6.1 | 0.00 | 0.00 | 0.00 | 60 | 1018.3 |
| 20260506185034 | 67 | 121 | 2.6 | 6.1 | 0.00 | 0.00 | 0.00 | 59 | 1018.3 |
| 20260506184532 | 67 | 78 | 2.6 | 5.2 | 0.00 | 0.00 | 0.00 | 59 | 1018.3 |
| 20260506184032 | 67 | 177 | 0.9 | 3.5 | 0.00 | 0.00 | 0.00 | 58 | 1018.3 |
| 20260506183531 | 67 | 146 | 0.9 | 6.1 | 0.00 | 0.00 | 0.00 | 61 | 1018.3 |
| 20260506183030 | 66 | 102 | 2.6 | 6.1 | 0.00 | 0.00 | 0.00 | 60 | 1018.3 |
| 20260506182529 | 66 | 210 | 2.6 | 6.1 | 0.00 | 0.00 | 0.00 | 59 | 1018.3 |
| 20260506182028 | 66 | 134 | 0.9 | 7.8 | 0.00 | 0.00 | 0.00 | 62 | 1018.4 |
| 20260506181532 | 65 | 212 | 2.6 | 9.6 | 0.00 | 0.00 | 0.00 | 61 | 1018.4 |
| 20260506181028 | 66 | 201 | 0.9 | 4.3 | 0.00 | 0.00 | 0.00 | 62 | 1018.4 |
| 20260506180529 | 65 | 134 | 0.9 | 4.3 | 0.00 | 0.00 | 0.00 | 62 | 1018.4 |
| 20260506180032 | 65 | 79 | 0.9 | 4.3 | 0.00 | 0.00 | 0.00 | 61 | 1018.4 |
| 20260506175522 | 65 | 162 | 0.0 | 6.1 | 0.00 | 0.00 | 0.00 | 62 | 1018.5 |
| 20260506175020 | 65 | 115 | 1.7 | 6.1 | 0.00 | 0.00 | 0.00 | 63 | 1018.5 |
| 20260506174520 | 64 | 103 | 0.9 | 4.3 | 0.00 | 0.00 | 0.00 | 62 | 1018.4 |
| 20260506174019 | 64 | 120 | 0.0 | 5.2 | 0.00 | 0.00 | 0.00 | 63 | 1018.5 |
| 20260506173519 | 64 | 124 | 0.9 | 4.3 | 0.00 | 0.00 | 0.00 | 64 | 1018.4 |
| 20260506173017 | 63 | 131 | 0.9 | 4.3 | 0.00 | 0.00 | 0.00 | 65 | 1018.4 |
| 20260506172517 | 63 | 142 | 1.7 | 4.3 | 0.00 | 0.00 | 0.00 | 64 | 1018.4 |
| 20260506172021 | 63 | 90 | 0.0 | 5.2 | 0.00 | 0.00 | 0.00 | 64 | 1018.4 |
| 20260506171533 | 63 | 114 | 1.7 | 5.2 | 0.00 | 0.00 | 0.00 | 65 | 1018.4 |
| 20260506171015 | 62 | 132 | 1.7 | 5.2 | 0.00 | 0.00 | 0.00 | 66 | 1018.4 |
| 20260506170514 | 62 | 197 | 1.7 | 5.2 | 0.00 | 0.00 | 0.00 | 67 | 1018.4 |
| 20260506170015 | 62 | 134 | 1.7 | 5.2 | 0.00 | 0.00 | 0.00 | 67 | 1018.3 |
| 20260506165514 | 62 | 107 | 0.9 | 3.5 | 0.00 | 0.00 | 0.00 | 67 | 1018.4 |
| 20260506165014 | 61 | 115 | 1.7 | 4.3 | 0.00 | 0.00 | 0.00 | 66 | 1018.4 |
| 20260506164513 | 61 | 238 | 0.9 | 4.3 | 0.00 | 0.00 | 0.00 | 66 | 1018.3 |
| 20260506164012 | 61 | 225 | 0.9 | 4.3 | 0.00 | 0.00 | 0.00 | 67 | 1018.3 |
| 20260506163512 | 61 | 224 | 1.7 | 4.3 | 0.00 | 0.00 | 0.00 | 67 | 1018.3 |
| 20260506163019 | 60 | 234 | 0.0 | 2.6 | 0.00 | 0.00 | 0.00 | 68 | 1018.3 |
| 20260506162509 | 59 | 128 | 0.9 | 3.5 | 0.00 | 0.00 | 0.00 | 68 | 1018.3 |
| 20260506162011 | 60 | 130 | 0.9 | 3.5 | 0.00 | 0.00 | 0.00 | 69 | 1018.3 |
| 20260506161516 | 59 | 113 | 0.0 | 2.6 | 0.00 | 0.00 | 0.00 | 70 | 1018.3 |
| 20260506161006 | 59 | 128 | 0.9 | 2.6 | 0.00 | 0.00 | 0.00 | 70 | 1018.3 |
| 20260506160505 | 58 | 82 | 0.9 | 2.6 | 0.00 | 0.00 | 0.00 | 70 | 1018.4 |
| 20260506160009 | 58 | 95 | 0.9 | 2.6 | 0.00 | 0.00 | 0.00 | 71 | 1018.4 |
| 20260506155506 | 58 | 111 | 0.0 | 2.6 | 0.00 | 0.00 | 0.00 | 72 | 1018.4 |
| 20260506155002 | 58 | 128 | 0.9 | 2.6 | 0.00 | 0.00 | 0.00 | 72 | 1018.4 |
| 20260506154502 | 58 | 229 | 0.9 | 2.6 | 0.00 | 0.00 | 0.00 | 73 | 1018.3 |
| 20260506154002 | 57 | 114 | 0.9 | 2.6 | 0.00 | 0.00 | 0.00 | 73 | 1018.4 |
| 20260506153503 | 57 | 99 | 0.9 | 2.6 | 0.00 | 0.00 | 0.00 | 72 | 1018.3 |
| 20260506153003 | 58 | 128 | 0.9 | 2.6 | 0.00 | 0.00 | 0.00 | 71 | 1018.3 |
| 20260506152501 | 58 | 60 | 0.0 | 1.7 | 0.00 | 0.00 | 0.00 | 73 | 1018.4 |
| 20260506152100 | 57 | 60 | 0.0 | 1.7 | 0.00 | 0.00 | 0.00 | 73 | 1018.3 |
| 20260506151600 | 57 | 87 | 0.0 | 1.7 | 0.00 | 0.00 | 0.00 | 74 | 1018.4 |
| 20260506151059 | 56 | 102 | 0.0 | 1.7 | 0.00 | 0.00 | 0.00 | 74 | 1018.3 |
| 20260506150558 | 57 | 104 | 0.9 | 2.6 | 0.00 | 0.00 | 0.00 | 74 | 1018.3 |
| 20260506145602 | 56 | 131 | 0.0 | 2.6 | 0.00 | 0.00 | 0.00 | 76 | 1018.3 |
| 20260506145057 | 56 | 100 | 0.0 | 2.6 | 0.00 | 0.00 | 0.00 | 77 | 1018.4 |
| 20260506144558 | 56 | 100 | 0.0 | 2.6 | 0.00 | 0.00 | 0.00 | 76 | 1018.4 |
| 20260506144057 | 56 | 18 | 0.0 | 1.7 | 0.00 | 0.00 | 0.00 | 76 | 1018.4 |
| 20260506143556 | 56 | 19 | 0.0 | 0.0 | 0.00 | 0.00 | 0.00 | 77 | 1018.4 |
| 20260506143054 | 55 | 19 | 0.0 | 0.9 | 0.00 | 0.00 | 0.00 | 78 | 1018.5 |
| 20260506142552 | 54 | 19 | 0.0 | 0.9 | 0.00 | 0.00 | 0.00 | 80 | 1018.4 |
| 20260506142053 | 53 | 18 | 0.0 | 0.0 | 0.00 | 0.00 | 0.00 | 84 | 1018.3 |
| 20260506141550 | 52 | 19 | 0.0 | 0.0 | 0.00 | 0.00 | 0.00 | 84 | 1018.3 |
| 20260506141049 | 51 | 18 | 0.0 | 0.0 | 0.00 | 0.00 | 0.00 | 84 | 1018.2 |
| 20260506140549 | 51 | 18 | 0.0 | 0.0 | 0.00 | 0.00 | 0.00 | 87 | 1018.2 |
| 20260506135546 | 49 | 18 | 0.0 | 0.0 | 0.00 | 0.00 | 0.00 | 87 | 1018.1 |
| 20260506135044 | 48 | 18 | 0.0 | 0.9 | 0.00 | 0.00 | 0.00 | 88 | 1018.0 |
| 20260506134610 | 47 | 19 | 0.0 | 0.9 | 0.00 | 0.00 | 0.00 | 88 | 1018.0 |
| 20260506134041 | 47 | 19 | 0.0 | 0.9 | 0.00 | 0.00 | 0.00 | 88 | 1017.9 |
| 20260506133541 | 47 | 19 | 0.0 | 0.9 | 0.00 | 0.00 | 0.00 | 88 | 1017.8 |
| 20260506133041 | 47 | 18 | 0.0 | 0.9 | 0.00 | 0.00 | 0.00 | 88 | 1017.7 |
| 20260506132541 | 47 | 18 | 0.0 | 1.7 | 0.00 | 0.00 | 0.00 | 88 | 1017.8 |
| 20260506132042 | 47 | 19 | 0.0 | 1.7 | 0.00 | 0.00 | 0.00 | 87 | 1017.8 |
| 20260506131557 | 47 | 18 | 0.0 | 0.9 | 0.00 | 0.00 | 0.00 | 87 | 1017.8 |
| 20260506131040 | 47 | 19 | 0.0 | 0.9 | 0.00 | 0.00 | 0.00 | 88 | 1017.8 |
| 20260506130539 | 47 | 19 | 0.0 | 0.9 | 0.00 | 0.00 | 0.00 | 87 | 1017.7 |
| 20260506125539 | 47 | 19 | 0.0 | 0.0 | 0.00 | 0.00 | 0.00 | 87 | 1017.6 |
| 20260506125039 | 47 | 18 | 0.0 | 0.0 | 0.00 | 0.00 | 0.00 | 86 | 1017.5 |
| 20260506124539 | 47 | 19 | 0.0 | 0.0 | 0.00 | 0.00 | 0.00 | 86 | 1017.5 |
| 20260506124040 | 47 | 19 | 0.0 | 0.0 | 0.00 | 0.00 | 0.00 | 86 | 1017.5 |
| 20260506123539 | 47 | 18 | 0.0 | 0.0 | 0.00 | 0.00 | 0.00 | 86 | 1017.4 |
| 20260506123044 | 47 | 19 | 0.0 | 0.0 | 0.00 | 0.00 | 0.00 | 86 | 1017.5 |
| 20260506122539 | 47 | 19 | 0.0 | 0.0 | 0.00 | 0.00 | 0.00 | 86 | 1017.3 |
| 20260506122039 | 47 | 18 | 0.0 | 0.0 | 0.00 | 0.00 | 0.00 | 86 | 1017.3 |
| 20260506121539 | 47 | 18 | 0.0 | 0.0 | 0.00 | 0.00 | 0.00 | 86 | 1017.4 |
| 20260506121039 | 47 | 19 | 0.0 | 0.9 | 0.00 | 0.00 | 0.00 | 85 | 1017.3 |
| 20260506120538 | 47 | 19 | 0.0 | 0.9 | 0.00 | 0.00 | 0.00 | 85 | 1017.3 |
| 20260506115539 | 48 | 19 | 0.0 | 0.9 | 0.00 | 0.00 | 0.00 | 84 | 1017.2 |
| 20260506115038 | 48 | 18 | 0.9 | 0.9 | 0.00 | 0.00 | 0.00 | 84 | 1017.2 |
| 20260506114546 | 48 | 18 | 0.0 | 0.9 | 0.00 | 0.00 | 0.00 | 84 | 1017.2 |
| 20260506114039 | 48 | 18 | 0.0 | 0.9 | 0.00 | 0.00 | 0.00 | 84 | 1017.1 |
| 20260506113539 | 48 | 18 | 0.0 | 0.9 | 0.00 | 0.00 | 0.00 | 84 | 1017.1 |
| 20260506113040 | 48 | 18 | 0.0 | 0.9 | 0.00 | 0.00 | 0.00 | 84 | 1017.1 |
| 20260506112538 | 48 | 19 | 0.0 | 0.9 | 0.00 | 0.00 | 0.00 | 85 | 1017.1 |
| 20260506112037 | 48 | 19 | 0.0 | 0.9 | 0.00 | 0.00 | 0.00 | 85 | 1017.0 |
| 20260506111537 | 48 | 19 | 0.0 | 0.9 | 0.00 | 0.00 | 0.00 | 84 | 1017.0 |
| 20260506111037 | 48 | 18 | 0.0 | 0.9 | 0.00 | 0.00 | 0.00 | 83 | 1017.1 |
| 20260506110537 | 48 | 18 | 0.9 | 1.7 | 0.00 | 0.00 | 0.00 | 83 | 1017.1 |
| 20260506105535 | 48 | 19 | 0.9 | 1.7 | 0.00 | 0.00 | 0.00 | 83 | 1017.1 |
| 20260506105036 | 48 | 19 | 0.9 | 1.7 | 0.00 | 0.00 | 0.00 | 83 | 1017.1 |
| 20260506104534 | 48 | 18 | 0.9 | 1.7 | 0.00 | 0.00 | 0.00 | 83 | 1017.1 |
| 20260506104034 | 49 | 19 | 0.0 | 1.7 | 0.00 | 0.00 | 0.00 | 83 | 1017.1 |
| 20260506103534 | 49 | 18 | 0.9 | 1.7 | 0.00 | 0.00 | 0.00 | 83 | 1017.1 |
| 20260506103034 | 48 | 19 | 0.9 | 1.7 | 0.00 | 0.00 | 0.00 | 83 | 1017.1 |
| 20260506102534 | 48 | 19 | 0.0 | 1.7 | 0.00 | 0.00 | 0.00 | 83 | 1017.1 |
| 20260506102037 | 48 | 19 | 0.9 | 1.7 | 0.00 | 0.00 | 0.00 | 83 | 1017.0 |
| 20260506101534 | 48 | 19 | 0.9 | 0.9 | 0.00 | 0.00 | 0.00 | 83 | 1017.0 |
| 20260506101034 | 48 | 18 | 0.0 | 0.9 | 0.00 | 0.00 | 0.00 | 83 | 1017.1 |
| 20260506100533 | 49 | 19 | 0.0 | 1.7 | 0.00 | 0.00 | 0.00 | 84 | 1017.1 |
| 20260506095539 | 49 | 18 | 0.9 | 1.7 | 0.00 | 0.00 | 0.00 | 84 | 1017.1 |
| 20260506095042 | 49 | 77 | 0.9 | 1.7 | 0.00 | 0.00 | 0.00 | 84 | 1017.2 |
| 20260506094537 | 48 | 79 | 0.9 | 1.7 | 0.00 | 0.00 | 0.00 | 84 | 1017.2 |
| 20260506094039 | 48 | 80 | 0.9 | 1.7 | 0.00 | 0.00 | 0.00 | 83 | 1017.2 |
| 20260506093542 | 49 | 81 | 0.9 | 1.7 | 0.00 | 0.00 | 0.00 | 83 | 1017.3 |
| 20260506093037 | 49 | 82 | 0.0 | 0.9 | 0.00 | 0.00 | 0.00 | 83 | 1017.3 |
| 20260506092537 | 49 | 82 | 0.0 | 0.9 | 0.00 | 0.00 | 0.00 | 83 | 1017.3 |
| 20260506092041 | 49 | 82 | 0.0 | 0.9 | 0.00 | 0.00 | 0.00 | 83 | 1017.3 |
| 20260506091537 | 49 | 82 | 0.9 | 1.7 | 0.00 | 0.00 | 0.00 | 84 | 1017.3 |
| 20260506091037 | 49 | 82 | 0.9 | 1.7 | 0.00 | 0.00 | 0.00 | 84 | 1017.3 |
| 20260506090536 | 49 | 98 | 0.0 | 0.9 | 0.00 | 0.00 | 0.00 | 84 | 1017.4 |
| 20260506085538 | 49 | 98 | 0.0 | 0.9 | 0.00 | 0.00 | 0.00 | 84 | 1017.6 |
| 20260506085037 | 49 | 98 | 0.0 | 0.9 | 0.00 | 0.00 | 0.00 | 84 | 1017.6 |
| 20260506084537 | 49 | 97 | 0.0 | 0.9 | 0.00 | 0.00 | 0.00 | 84 | 1017.7 |
| 20260506084037 | 49 | 97 | 0.0 | 0.9 | 0.00 | 0.00 | 0.00 | 84 | 1017.7 |
| 20260506083537 | 49 | 98 | 0.0 | 0.9 | 0.00 | 0.00 | 0.00 | 85 | 1017.8 |
| 20260506083042 | 49 | 97 | 0.0 | 0.9 | 0.00 | 0.00 | 0.00 | 84 | 1017.8 |
| 20260506082536 | 49 | 98 | 0.0 | 0.9 | 0.00 | 0.00 | 0.00 | 85 | 1017.7 |
| 20260506082036 | 49 | 97 | 0.0 | 0.9 | 0.00 | 0.00 | 0.00 | 84 | 1017.7 |
| 20260506081543 | 49 | 97 | 0.0 | 0.9 | 0.00 | 0.00 | 0.00 | 84 | 1017.7 |
| 20260506081035 | 49 | 97 | 0.0 | 0.9 | 0.00 | 0.00 | 0.00 | 84 | 1017.7 |
| 20260506080535 | 49 | 98 | 0.0 | 0.9 | 0.00 | 0.00 | 0.00 | 84 | 1017.8 |
| 20260506073034 | 50 | 98 | 0.0 | 0.9 | 0.00 | 0.00 | 0.00 | 82 | 1017.8 |
| 20260506072532 | 50 | 97 | 0.0 | 0.0 | 0.00 | 0.00 | 0.00 | 81 | 1017.8 |
| 20260506072033 | 50 | 98 | 0.0 | 0.9 | 0.00 | 0.00 | 0.00 | 81 | 1017.8 |
| 20260506071533 | 50 | 98 | 0.0 | 0.9 | 0.00 | 0.00 | 0.00 | 81 | 1017.8 |
| 20260506071030 | 50 | 98 | 0.0 | 0.9 | 0.00 | 0.00 | 0.00 | 80 | 1017.7 |
| 20260506070530 | 51 | 98 | 0.0 | 0.9 | 0.00 | 0.00 | 0.00 | 80 | 1017.7 |
| 20260506062024 | 51 | 97 | 0.0 | 0.9 | 0.00 | 0.00 | 0.00 | 81 | 1017.1 |
| 20260506061533 | 51 | 97 | 0.0 | 0.9 | 0.00 | 0.00 | 0.00 | 81 | 1017.0 |
| 20260506061023 | 50 | 97 | 0.0 | 0.9 | 0.00 | 0.00 | 0.00 | 81 | 1017.1 |
| 20260506060523 | 51 | 98 | 0.0 | 0.9 | 0.00 | 0.00 | 0.00 | 80 | 1017.1 |
| 20260506051024 | 51 | 98 | 0.0 | 0.9 | 0.00 | 0.00 | 0.00 | 80 | 1016.9 |
| 20260506050521 | 51 | 97 | 0.0 | 0.9 | 0.00 | 0.00 | 0.00 | 80 | 1016.8 |
| 20260506045019 | 52 | 97 | 0.0 | 0.9 | 0.00 | 0.00 | 0.00 | 79 | 1016.6 |
| 20260506044520 | 52 | 98 | 0.0 | 0.9 | 0.00 | 0.00 | 0.00 | 78 | 1016.6 |
| 20260506044022 | 52 | 97 | 0.0 | 1.7 | 0.00 | 0.00 | 0.00 | 78 | 1016.5 |
| 20260506043517 | 52 | 98 | 0.0 | 1.7 | 0.00 | 0.00 | 0.00 | 78 | 1016.4 |
| 20260506043016 | 52 | 98 | 0.0 | 1.7 | 0.00 | 0.00 | 0.00 | 78 | 1016.4 |
| 20260506042516 | 52 | 97 | 0.0 | 1.7 | 0.00 | 0.00 | 0.00 | 78 | 1016.3 |
| 20260506042014 | 52 | 97 | 0.0 | 1.7 | 0.00 | 0.00 | 0.00 | 78 | 1016.2 |
| 20260506041514 | 52 | 99 | 0.0 | 0.9 | 0.00 | 0.00 | 0.00 | 78 | 1016.1 |
| 20260506041013 | 53 | 99 | 0.0 | 0.9 | 0.00 | 0.00 | 0.00 | 77 | 1016.0 |
| 20260506040517 | 53 | 99 | 0.0 | 0.9 | 0.00 | 0.00 | 0.00 | 77 | 1015.9 |
| 20260506035515 | 53 | 98 | 0.0 | 0.9 | 0.00 | 0.00 | 0.00 | 75 | 1015.9 |
| 20260506035014 | 53 | 99 | 0.0 | 0.9 | 0.00 | 0.00 | 0.00 | 75 | 1015.9 |
| 20260506034514 | 53 | 98 | 0.0 | 0.0 | 0.00 | 0.00 | 0.00 | 75 | 1015.8 |
| 20260506034012 | 54 | 99 | 0.0 | 0.0 | 0.00 | 0.00 | 0.00 | 74 | 1015.7 |
| 20260506033512 | 54 | 99 | 0.0 | 0.9 | 0.00 | 0.00 | 0.00 | 74 | 1015.6 |
| 20260506033015 | 54 | 98 | 0.0 | 1.7 | 0.00 | 0.00 | 0.00 | 72 | 1015.6 |
| 20260506032512 | 55 | 98 | 0.0 | 1.7 | 0.00 | 0.00 | 0.00 | 72 | 1015.6 |
| 20260506032011 | 55 | 112 | 0.0 | 1.7 | 0.00 | 0.00 | 0.00 | 73 | 1015.5 |
| 20260506031510 | 55 | 104 | 0.0 | 0.9 | 0.00 | 0.00 | 0.00 | 72 | 1015.5 |
| 20260506031009 | 55 | 105 | 0.0 | 0.9 | 0.00 | 0.00 | 0.00 | 71 | 1015.4 |
| 20260506030507 | 55 | 105 | 0.0 | 0.9 | 0.00 | 0.00 | 0.00 | 71 | 1015.2 |
| 20260506025508 | 56 | 104 | 0.0 | 0.9 | 0.00 | 0.00 | 0.00 | 70 | 1015.1 |
| 20260506025006 | 56 | 105 | 0.0 | 0.9 | 0.00 | 0.00 | 0.00 | 70 | 1015.1 |
| 20260506024517 | 56 | 104 | 0.0 | 1.7 | 0.00 | 0.00 | 0.00 | 70 | 1014.9 |
| 20260506024007 | 56 | 105 | 0.0 | 1.7 | 0.00 | 0.00 | 0.00 | 70 | 1014.9 |
| 20260506023506 | 56 | 105 | 0.0 | 0.9 | 0.00 | 0.00 | 0.00 | 69 | 1014.9 |
| 20260506023006 | 56 | 105 | 0.0 | 0.9 | 0.00 | 0.00 | 0.00 | 69 | 1014.8 |
| 20260506022504 | 56 | 105 | 0.0 | 1.7 | 0.00 | 0.00 | 0.00 | 69 | 1014.8 |
| 20260506022007 | 56 | 104 | 0.0 | 1.7 | 0.00 | 0.00 | 0.00 | 69 | 1014.8 |
| 20260506021509 | 56 | 121 | 0.0 | 1.7 | 0.00 | 0.00 | 0.00 | 68 | 1014.6 |
| 20260506021005 | 56 | 121 | 0.0 | 2.6 | 0.00 | 0.00 | 0.00 | 68 | 1014.6 |
| 20260506020504 | 57 | 83 | 0.9 | 2.6 | 0.00 | 0.00 | 0.00 | 68 | 1014.5 |
| 20260506015508 | 57 | 119 | 0.9 | 2.6 | 0.00 | 0.00 | 0.00 | 67 | 1014.6 |
| 20260506015005 | 57 | 113 | 0.0 | 2.6 | 0.00 | 0.00 | 0.00 | 68 | 1014.6 |
| 20260506014511 | 57 | 110 | 0.0 | 3.5 | 0.00 | 0.00 | 0.00 | 68 | 1014.6 |
| 20260506014005 | 57 | 110 | 1.7 | 3.5 | 0.00 | 0.00 | 0.00 | 68 | 1014.6 |
| 20260506013505 | 57 | 120 | 0.9 | 3.5 | 0.00 | 0.00 | 0.00 | 67 | 1014.5 |
| 20260506013005 | 57 | 131 | 0.0 | 3.5 | 0.00 | 0.00 | 0.00 | 67 | 1014.4 |
| 20260506012505 | 57 | 128 | 0.9 | 4.3 | 0.00 | 0.00 | 0.00 | 67 | 1014.4 |
| 20260506012005 | 58 | 98 | 1.7 | 4.3 | 0.00 | 0.00 | 0.00 | 66 | 1014.4 |
| 20260506011504 | 58 | 110 | 0.0 | 2.6 | 0.00 | 0.00 | 0.00 | 65 | 1014.4 |
| 20260506011004 | 58 | 107 | 0.0 | 4.3 | 0.00 | 0.00 | 0.00 | 64 | 1014.5 |
| 20260506010508 | 58 | 113 | 0.0 | 4.3 | 0.00 | 0.00 | 0.00 | 64 | 1014.5 |
| 20260506005505 | 58 | 93 | 0.9 | 3.5 | 0.00 | 0.00 | 0.00 | 64 | 1014.4 |
| 20260506005006 | 58 | 131 | 0.9 | 3.5 | 0.00 | 0.00 | 0.00 | 63 | 1014.4 |
| 20260506004507 | 58 | 108 | 0.0 | 3.5 | 0.00 | 0.00 | 0.00 | 64 | 1014.4 |
| 20260506004005 | 58 | 112 | 0.9 | 4.3 | 0.00 | 0.00 | 0.00 | 64 | 1014.3 |
| 20260506003505 | 59 | 110 | 0.9 | 6.1 | 0.00 | 0.00 | 0.00 | 63 | 1014.3 |
| 20260506003007 | 59 | 96 | 0.9 | 6.1 | 0.00 | 0.00 | 0.00 | 63 | 1014.3 |
| 20260506002504 | 59 | 85 | 0.9 | 3.5 | 0.00 | 0.00 | 0.00 | 63 | 1014.3 |
| 20260506002005 | 59 | 128 | 0.9 | 4.3 | 0.00 | 0.00 | 0.00 | 62 | 1014.2 |
| 20260506001505 | 59 | 103 | 0.0 | 4.3 | 0.00 | 0.00 | 0.00 | 62 | 1014.3 |
| 20260506001004 | 59 | 136 | 0.9 | 6.1 | 0.00 | 0.00 | 0.00 | 61 | 1014.2 |
| 20260506000509 | 60 | 117 | 0.9 | 4.3 | 0.00 | 0.00 | 0.00 | 58 | 1014.1 |
| 20260505235507 | 60 | 123 | 1.7 | 4.3 | 0.00 | 0.00 | 0.00 | 57 | 1014.2 |
| 20260505235004 | 60 | 263 | 1.7 | 6.1 | 0.00 | 0.00 | 0.00 | 58 | 1014.2 |
| 20260505234506 | 61 | 235 | 1.7 | 7.0 | 0.00 | 0.00 | 0.00 | 57 | 1014.1 |
| 20260505234008 | 60 | 259 | 0.9 | 4.3 | 0.00 | 0.00 | 0.00 | 58 | 1014.1 |
| 20260505233503 | 60 | 91 | 0.9 | 6.1 | 0.00 | 0.00 | 0.00 | 58 | 1014.2 |
| 20260505233004 | 60 | 131 | 2.6 | 6.1 | 0.00 | 0.00 | 0.00 | 58 | 1014.2 |
| 20260505232509 | 59 | 139 | 1.7 | 7.0 | 0.00 | 0.00 | 0.00 | 60 | 1014.2 |